Regional Weather Roundup
Issued by NWS Charleston, WV

Home | Current Version | Previous Version | Graphics & Text | Print | Product List | Glossary On
Versions: 1 2 3 4 5 6 7 8 9 10 11 12 13 14 15 16 17 18 19 20 21 22 23 24 25 26 27 28 29 30 31 32 33 34 35 36 37 38 39 40 41 42 43 44 45 46 47 48 49 50
000
ASUS41 KRLX 061710
RWRRLX
West Virginia Regional Weather Roundup
National Weather Service Charleston WV
1200 PM EST FRI MAR 06 2015

Note: "fair" indicates few or no clouds below 12,000 feet with no
significant weather and/or obstructions to visibility.

WVZ003-061800-
Northern Panhandle of West Virginia

CITY           SKY/WX    TMP DP  RH WIND       PRES   REMARKS
WHEELING       SUNNY     17   4  56 VRB5      30.50S WCI  10
$$

WVZ009-061800-
Northwest West Virginia

CITY           SKY/WX    TMP DP  RH WIND       PRES   REMARKS
PARKERSBURG    MOSUNNY   18   8  65 VRB5      30.57F
$$

WVZ006-061800-
Western West Virginia

CITY           SKY/WX    TMP DP  RH WIND       PRES   REMARKS
HUNTINGTON     MOSUNNY   21  11  65 N3        30.55S
$$

WVZ015-061800-
West Central West Virginia

CITY           SKY/WX    TMP DP  RH WIND       PRES   REMARKS
CHARLESTON     MOSUNNY   23  11  60 N5        30.52F
$$

WVZ022-031-061800-
North Central West Virginia

CITY           SKY/WX    TMP DP  RH WIND       PRES   REMARKS
CLARKSBURG     SUNNY    N/A N/A N/A CALM      30.50F
MORGANTOWN     SUNNY     17   6  62 VRB3      30.49F
$$

WVZ025-035-042-045-061800-
Southern West Virginia

CITY           SKY/WX    TMP DP  RH WIND       PRES   REMARKS
BECKLEY        SUNNY     23  10  57 CALM      30.37F
LOGAN            N/A     21  10  63 CALM      30.42F
BLUEFIELD      SUNNY     24  13  62 CALM      30.35S
LEWISBURG      SUNNY     21  11  66 NW3       30.40F
$$

WVZ047-061800-
Northern Mountains of West Virginia

CITY           SKY/WX    TMP DP  RH WIND       PRES   REMARKS
ELKINS         SUNNY     16   0  48 S12       30.43S WCI   3
$$

WVZ052-061800-
Eastern Panhandle of West Virginia

CITY           SKY/WX    TMP DP  RH WIND       PRES   REMARKS
MARTINSBURG    SUNNY     19   1  45 CALM      30.56F
PETERSBURG     SUNNY     23   2  40 CALM      30.53F
$$


USA.gov is the U.S. government's official web portal to all federal, state and local government web resources and services.